Weather History for KAJO - August, 2014

Change the Weather History Date:

Tuesday, August 5, 2014

  Actual Average (KONT) Record (KONT)
Temperature  
Mean Temperature 72 °F 79 °F  
Max Temperature 88 °F 94 °F 99 °F (2009)
Min Temperature 57 °F 64 °F 58 °F (2010)
Degree Days  
Heating Degree Days 0 0  
Month to date heating degree days 0  
Since 1 June heating degree days 5  
Since 1 July heating degree days 0  
Cooling Degree Days 8 14  
Month to date cooling degree days 70  
Year to date cooling degree days 854  
Since 1 June cooling degree days 688  
Growing Degree Days 22 (Base 50)    
Moisture  
Dew Point 55 °F    
Average Humidity 59    
Maximum Humidity 93    
Minimum Humidity 26    
Precipitation  
Precipitation 0.00 in 0.00 in 0.00 in (2015)
Month to date precipitation 0.02  
Year to date precipitation 10.49  
Since 1 July precipitation 0.11  
Snow  
Snow 0.00 in - - ()
Month to date snowfall  
Year to date snowfall  
Since 1 July snowfall  
Snow Depth -    
Sea Level Pressure  
Sea Level Pressure 29.99 in    
Wind  
Wind Speed 4 mph (West)    
Max Wind Speed 17 mph    
Max Gust Speed 21 mph    
Visibility 9 miles    
Events      
T = Trace of Precipitation, MM = Missing Value Source: NWS Daily Summary

Daily Weather History Graph

Daily Weather History Graph

Search for Another Location

Airport or City:

Trip Planner

Search our weather history database for the weather conditions in past years. The results will help you decide how hot, cold, wet, or windy it might be!

Date:

Astronomy

Aug. 05, 2014 Rise Set
Actual Time 6:05 AM PDT 7:47 PM PDT
Civil Twilight 5:37 AM PDT 8:14 PM PDT
Nautical Twilight 5:05 AM PDT 8:46 PM PDT
Astronomical Twilight 4:30 AM PDT 9:21 PM PDT
Moon 3:06 PM PDT (8/5) 12:56 AM PDT (8/5)
Length of Visible Light 14h 36m
Length of Day
13h 42m
Waxing Gibbous, 69% of the Moon is Illuminated
Aug 5
Waxing Gibbous
Aug 10
Full
Aug 17
Last Quarter
Aug 25
New
Sep 2
First Quarter

Hourly Weather History & Observations

Time (PDT) Temp. Heat Index Dew Point Humidity Pressure Visibility Wind Dir Wind Speed Gust Speed Precip Events Conditions
12:56 AM 64.9 °F - 57.9 °F 78% 29.98 in 10.0 mi Calm Calm - N/A   Clear
1:56 AM 63.9 °F - 57.9 °F 81% 29.97 in 10.0 mi West 4.6 mph - N/A   Clear
2:56 AM 59.9 °F - 56.8 °F 90% 29.98 in 10.0 mi Calm Calm - N/A   Clear
3:56 AM 61.0 °F - 55.9 °F 83% 29.98 in 10.0 mi WSW 3.5 mph - N/A   Clear
4:56 AM 59.9 °F - 55.9 °F 87% 29.99 in 10.0 mi Calm Calm - N/A   Clear
5:56 AM 59.9 °F - 55.9 °F 87% 30.01 in 10.0 mi Calm Calm - N/A   Clear
6:56 AM 57.9 °F - 55.9 °F 93% 30.03 in 10.0 mi Calm Calm - N/A   Clear
7:56 AM 65.8 °F - 55.9 °F 70% 30.03 in 10.0 mi Calm Calm - N/A   Clear
8:56 AM 70.9 °F - 56.8 °F 61% 30.03 in 10.0 mi Calm Calm - N/A   Clear
9:56 AM 77.0 °F - 55.9 °F 48% 30.01 in 10.0 mi Calm Calm - N/A   Clear
10:56 AM 81.0 °F 80.7 °F 54.9 °F 41% 30.01 in 10.0 mi West 5.8 mph - N/A   Clear
11:56 AM 84.9 °F - 50.0 °F 30% 29.99 in 10.0 mi Variable 4.6 mph - N/A   Clear
12:56 PM 88.0 °F - 50.9 °F 28% 29.98 in 9.0 mi West 8.1 mph - N/A   Clear
1:56 PM 88.0 °F 86.5 °F 55.9 °F 34% 29.97 in 10.0 mi West 12.7 mph - N/A   Clear
2:56 PM 86.9 °F 84.9 °F 54.0 °F 32% 29.96 in 10.0 mi West 15.0 mph 20.7 mph N/A   Clear
3:56 PM 86.9 °F 84.9 °F 54.0 °F 32% 29.94 in 10.0 mi West 17.3 mph 20.7 mph N/A   Clear
4:56 PM 86.9 °F - 47.8 °F 26% 29.93 in 10.0 mi West 13.8 mph 20.7 mph N/A   Clear
5:56 PM 83.8 °F - 45.0 °F 26% 29.94 in 10.0 mi WNW 16.1 mph - N/A   Clear
6:56 PM 81.9 °F - 48.9 °F 32% 29.94 in 10.0 mi WNW 11.5 mph - N/A   Clear
7:56 PM 77.0 °F - 52.9 °F 43% 29.95 in 10.0 mi WNW 10.4 mph - N/A   Clear
8:56 PM 72.9 °F - 57.9 °F 59% 29.98 in 8.0 mi WNW 10.4 mph - N/A   Clear
9:56 PM 70.9 °F - 57.9 °F 63% 30.00 in 3.0 mi West 8.1 mph - N/A   Haze
10:31 PM 69.8 °F - 60.8 °F 73% 30.02 in 2.0 mi WNW 4.6 mph - N/A   Haze
10:41 PM 69.8 °F - 60.8 °F 73% 30.02 in 5.0 mi WNW 4.6 mph - N/A   Haze
10:56 PM 68.0 °F - 59.9 °F 75% 30.01 in 10.0 mi West 4.6 mph - N/A   Clear
11:56 PM 65.8 °F - 59.9 °F 81% 30.01 in 10.0 mi West 6.9 mph - N/A   Clear